Time,TemperatureF,DewpointF,PressureIn,WindDirection,WindDirectionDegrees,WindSpeedMPH,WindSpeedGustMPH,Humidity,HourlyPrecipIn,Conditions,Clouds,dailyrainin,SoftwareType,DateUTC
2013-06-28 00:00:00,68.4,60.1,29.77,NNW,331,0.0,1.0,75,0.00,CLR,,0.00,WeatherDisplay:10.37,2013-06-28 05:00:00,
2013-06-28 00:05:00,68.1,60.2,29.77,NNW,331,0.0,5.0,76,0.00,CLR,,0.00,WeatherDisplay:10.37,2013-06-28 05:05:00,
2013-06-28 00:10:00,68.0,60.1,29.77,NNW,331,0.0,1.0,76,0.00,CLR,,0.00,WeatherDisplay:10.37,2013-06-28 05:10:00,
2013-06-28 00:15:00,67.8,60.3,29.77,NNW,331,0.0,0.0,77,0.00,CLR,,0.00,WeatherDisplay:10.37,2013-06-28 05:15:00,
2013-06-28 00:20:00,67.8,61.0,29.77,NNW,331,0.0,0.0,79,0.00,CLR,,0.00,WeatherDisplay:10.37,2013-06-28 05:20:00,
2013-06-28 00:30:00,67.5,61.5,29.76,NNW,331,0.0,1.0,81,0.00,CLR,,0.00,WeatherDisplay:10.37,2013-06-28 05:30:00,
2013-06-28 00:35:00,67.3,61.3,29.76,NNW,331,0.0,0.0,81,0.00,CLR,,0.00,WeatherDisplay:10.37,2013-06-28 05:35:00,
2013-06-28 00:40:00,67.1,61.1,29.76,NNW,331,0.0,1.0,81,0.00,CLR,,0.00,WeatherDisplay:10.37,2013-06-28 05:40:00,
2013-06-28 00:45:00,66.8,60.8,29.76,NNW,331,0.0,0.0,81,0.00,CLR,,0.00,WeatherDisplay:10.37,2013-06-28 05:45:00,
2013-06-28 00:50:00,66.6,60.9,29.76,NNW,331,0.0,0.0,82,0.00,CLR,,0.00,WeatherDisplay:10.37,2013-06-28 05:50:00,
2013-06-28 00:55:00,66.4,61.1,29.76,NNW,331,0.0,0.0,83,0.00,CLR,,0.00,WeatherDisplay:10.37,2013-06-28 05:55:00,
2013-06-28 01:00:00,66.2,61.2,29.75,NNW,331,0.0,0.0,84,0.00,CLR,,0.00,WeatherDisplay:10.37,2013-06-28 06:00:00,
2013-06-28 01:05:00,66.0,61.0,29.76,NNW,331,0.0,0.0,84,0.00,CLR,,0.00,WeatherDisplay:10.37,2013-06-28 06:05:00,
2013-06-28 01:10:00,65.8,60.8,29.76,NNW,331,0.0,1.0,84,0.00,CLR,,0.00,WeatherDisplay:10.37,2013-06-28 06:10:00,
2013-06-28 01:20:00,65.4,60.4,29.75,NNW,331,0.0,0.0,84,0.00,CLR,,0.00,WeatherDisplay:10.37,2013-06-28 06:20:00,
2013-06-28 01:25:00,65.3,60.7,29.75,NNW,331,0.0,0.0,85,0.00,CLR,,0.00,WeatherDisplay:10.37,2013-06-28 06:25:00,
2013-06-28 01:30:00,65.1,60.5,29.75,NNW,331,0.0,0.0,85,0.00,CLR,,0.00,WeatherDisplay:10.37,2013-06-28 06:30:00,
2013-06-28 01:40:00,64.9,60.6,29.75,NNW,331,0.0,1.0,86,0.00,CLR,,0.00,WeatherDisplay:10.37,2013-06-28 06:40:00,
2013-06-28 01:45:00,64.8,60.5,29.75,NNW,331,0.0,0.0,86,0.00,CLR,,0.00,WeatherDisplay:10.37,2013-06-28 06:45:00,
2013-06-28 01:50:00,64.7,60.4,29.75,NNW,331,0.0,0.0,86,0.00,CLR,,0.00,WeatherDisplay:10.37,2013-06-28 06:50:00,
2013-06-28 01:55:00,64.5,59.9,29.75,NNW,331,0.0,0.0,85,0.00,CLR,,0.00,WeatherDisplay:10.37,2013-06-28 06:55:00,
2013-06-28 02:00:00,64.4,60.1,29.75,NNW,331,0.0,1.0,86,0.00,CLR,,0.00,WeatherDisplay:10.37,2013-06-28 07:00:00,
2013-06-28 02:05:00,64.4,60.4,29.75,NNW,331,0.0,1.0,87,0.00,CLR,,0.00,WeatherDisplay:10.37,2013-06-28 07:05:00,
2013-06-28 02:10:00,64.3,60.0,29.75,NNW,331,0.0,4.0,86,0.00,CLR,,0.00,WeatherDisplay:10.37,2013-06-28 07:10:00,
2013-06-28 02:15:00,64.1,59.8,29.75,NNW,331,0.0,3.0,86,0.00,CLR,,0.00,WeatherDisplay:10.37,2013-06-28 07:15:00,
2013-06-28 02:20:00,64.0,59.7,29.75,NNW,331,0.0,3.0,86,0.00,CLR,,0.00,WeatherDisplay:10.37,2013-06-28 07:20:00,
2013-06-28 02:25:00,63.9,59.6,29.75,NNW,331,1.0,4.0,86,0.00,CLR,,0.00,WeatherDisplay:10.37,2013-06-28 07:25:00,
2013-06-28 02:30:00,63.8,59.5,29.75,NNW,331,0.0,0.0,86,0.00,CLR,,0.00,WeatherDisplay:10.37,2013-06-28 07:30:00,
2013-06-28 02:35:00,63.7,59.8,29.75,NNW,331,0.0,0.0,87,0.00,CLR,,0.00,WeatherDisplay:10.37,2013-06-28 07:35:00,
2013-06-28 02:40:00,63.7,59.8,29.75,NNW,331,0.0,0.0,87,0.00,CLR,,0.00,WeatherDisplay:10.37,2013-06-28 07:40:00,
2013-06-28 02:45:00,63.7,59.8,29.75,NNW,331,0.0,1.0,87,0.00,CLR,,0.00,WeatherDisplay:10.37,2013-06-28 07:45:00,
2013-06-28 02:50:00,63.7,59.8,29.75,NNW,331,0.0,0.0,87,0.00,CLR,,0.00,WeatherDisplay:10.37,2013-06-28 07:50:00,
2013-06-28 02:55:00,63.6,59.7,29.75,NNW,331,0.0,0.0,87,0.00,CLR,,0.00,WeatherDisplay:10.37,2013-06-28 07:55:00,
2013-06-28 03:00:00,63.5,59.6,29.75,NNW,331,0.0,0.0,87,0.00,CLR,,0.00,WeatherDisplay:10.37,2013-06-28 08:00:00,
2013-06-28 03:05:00,63.4,59.5,29.75,NNW,331,0.0,0.0,87,0.00,CLR,,0.00,WeatherDisplay:10.37,2013-06-28 08:05:00,
2013-06-28 03:10:00,63.3,59.7,29.75,NNW,331,0.0,0.0,88,0.00,CLR,,0.00,WeatherDisplay:10.37,2013-06-28 08:10:00,
2013-06-28 03:15:00,63.3,59.7,29.74,NNW,331,0.0,0.0,88,0.00,CLR,,0.00,WeatherDisplay:10.37,2013-06-28 08:15:00,
2013-06-28 03:20:00,63.2,59.6,29.74,NNW,331,0.0,0.0,88,0.00,CLR,,0.00,WeatherDisplay:10.37,2013-06-28 08:20:00,
2013-06-28 03:30:00,63.3,59.7,29.74,NNW,331,0.0,0.0,88,0.00,CLR,,0.00,WeatherDisplay:10.37,2013-06-28 08:30:00,
2013-06-28 03:40:00,63.6,59.7,29.74,NNW,331,0.0,0.0,87,0.00,CLR,,0.00,WeatherDisplay:10.37,2013-06-28 08:40:00,
2013-06-28 03:45:00,63.8,59.5,29.73,NNW,331,0.0,1.0,86,0.00,CLR,,0.00,WeatherDisplay:10.37,2013-06-28 08:45:00,
2013-06-28 03:50:00,63.9,59.3,29.73,NNW,331,0.0,1.0,85,0.00,CLR,,0.00,WeatherDisplay:10.37,2013-06-28 08:50:00,
2013-06-28 03:55:00,64.0,59.1,29.74,NNW,331,0.0,2.0,84,0.00,CLR,,0.00,WeatherDisplay:10.37,2013-06-28 08:55:00,
2013-06-28 04:00:00,64.3,59.0,29.74,NNW,331,0.0,1.0,83,0.00,CLR,,0.00,WeatherDisplay:10.37,2013-06-28 09:00:00,
2013-06-28 04:05:00,64.5,58.9,29.74,NNW,331,0.0,1.0,82,0.00,CLR,,0.00,WeatherDisplay:10.37,2013-06-28 09:05:00,
2013-06-28 04:10:00,64.6,59.3,29.74,NNW,331,0.0,1.0,83,0.00,CLR,,0.00,WeatherDisplay:10.37,2013-06-28 09:10:00,
2013-06-28 04:15:00,64.4,59.4,29.73,NNW,331,1.0,2.0,84,0.00,CLR,,0.00,WeatherDisplay:10.37,2013-06-28 09:15:00,
2013-06-28 04:20:00,64.1,59.2,29.73,NNW,331,0.0,1.0,84,0.00,CLR,,0.00,WeatherDisplay:10.37,2013-06-28 09:20:00,
2013-06-28 04:25:00,63.9,59.3,29.73,NNW,331,0.0,1.0,85,0.00,CLR,,0.00,WeatherDisplay:10.37,2013-06-28 09:25:00,
2013-06-28 04:30:00,63.8,59.2,29.73,NNW,331,0.0,1.0,85,0.00,CLR,,0.00,WeatherDisplay:10.37,2013-06-28 09:30:00,
2013-06-28 04:35:00,63.7,59.1,29.73,NNW,331,0.0,0.0,85,0.00,CLR,,0.00,WeatherDisplay:10.37,2013-06-28 09:35:00,
2013-06-28 04:40:00,63.6,59.0,29.73,NNW,331,0.0,0.0,85,0.00,CLR,,0.00,WeatherDisplay:10.37,2013-06-28 09:40:00,
2013-06-28 04:45:00,63.4,58.8,29.74,NNW,331,0.0,0.0,85,0.00,CLR,,0.00,WeatherDisplay:10.37,2013-06-28 09:45:00,
2013-06-28 04:50:00,63.2,59.0,29.74,NNW,331,0.0,0.0,86,0.00,CLR,,0.00,WeatherDisplay:10.37,2013-06-28 09:50:00,
2013-06-28 05:00:00,62.9,59.0,29.74,NNW,331,0.0,0.0,87,0.00,CLR,,0.00,WeatherDisplay:10.37,2013-06-28 10:00:00,
2013-06-28 05:05:00,62.8,58.9,29.74,NNW,331,0.0,0.0,87,0.00,CLR,,0.00,WeatherDisplay:10.37,2013-06-28 10:05:00,
2013-06-28 05:10:00,62.7,58.8,29.74,NNW,331,0.0,0.0,87,0.00,CLR,,0.00,WeatherDisplay:10.37,2013-06-28 10:10:00,
2013-06-28 05:15:00,62.6,58.7,29.74,NNW,331,0.0,4.0,87,0.00,CLR,,0.00,WeatherDisplay:10.37,2013-06-28 10:15:00,
2013-06-28 05:20:00,62.5,58.6,29.74,NNW,331,0.0,0.0,87,0.00,CLR,,0.00,WeatherDisplay:10.37,2013-06-28 10:20:00,
2013-06-28 05:25:00,62.3,58.7,29.74,NNW,331,0.0,0.0,88,0.00,CLR,,0.00,WeatherDisplay:10.37,2013-06-28 10:25:00,
2013-06-28 05:30:00,62.2,58.6,29.74,NNW,331,0.0,2.0,88,0.00,CLR,,0.00,WeatherDisplay:10.37,2013-06-28 10:30:00,
2013-06-28 05:35:00,62.1,58.5,29.74,NNW,331,0.0,1.0,88,0.00,CLR,,0.00,WeatherDisplay:10.37,2013-06-28 10:35:00,
2013-06-28 05:40:00,62.0,58.4,29.74,NNW,331,0.0,1.0,88,0.00,CLR,,0.00,WeatherDisplay:10.37,2013-06-28 10:40:00,
2013-06-28 05:50:00,62.1,58.5,29.75,NNW,331,0.0,1.0,88,0.00,CLR,,0.00,WeatherDisplay:10.37,2013-06-28 10:50:00,
2013-06-28 06:00:00,61.9,58.3,29.75,NNW,331,0.0,0.0,88,0.00,CLR,,0.00,WeatherDisplay:10.37,2013-06-28 11:00:00,
2013-06-28 06:05:00,61.8,58.5,29.75,NNW,331,0.0,0.0,89,0.00,CLR,,0.00,WeatherDisplay:10.37,2013-06-28 11:05:00,
2013-06-28 06:10:00,61.7,58.4,29.75,NNW,331,0.0,0.0,89,0.00,CLR,,0.00,WeatherDisplay:10.37,2013-06-28 11:10:00,
2013-06-28 06:15:00,61.7,58.4,29.75,NNW,331,0.0,1.0,89,0.00,CLR,,0.00,WeatherDisplay:10.37,2013-06-28 11:15:00,
2013-06-28 06:20:00,61.7,58.4,29.75,NNW,331,0.0,2.0,89,0.00,CLR,,0.00,WeatherDisplay:10.37,2013-06-28 11:20:00,
2013-06-28 06:25:00,61.8,58.5,29.75,NNW,331,0.0,2.0,89,0.00,CLR,,0.00,WeatherDisplay:10.37,2013-06-28 11:25:00,
2013-06-28 06:30:00,62.0,58.7,29.74,NNW,331,0.0,2.0,89,0.00,CLR,,0.00,WeatherDisplay:10.37,2013-06-28 11:30:00,
2013-06-28 06:35:00,62.2,58.6,29.74,NNW,331,0.0,2.0,88,0.00,CLR,,0.00,WeatherDisplay:10.37,2013-06-28 11:35:00,
2013-06-28 06:40:00,62.5,58.9,29.74,NNW,331,1.0,4.0,88,0.00,CLR,,0.00,WeatherDisplay:10.37,2013-06-28 11:40:00,
2013-06-28 06:45:00,63.0,59.1,29.74,NNW,331,0.0,2.0,87,0.00,CLR,,0.00,WeatherDisplay:10.37,2013-06-28 11:45:00,
2013-06-28 06:50:00,63.7,59.1,29.74,NNW,336,1.0,7.0,85,0.00,CLR,,0.00,WeatherDisplay:10.37,2013-06-28 11:50:00,
2013-06-28 06:55:00,64.1,59.5,29.74,NNW,341,1.0,5.0,85,0.00,CLR,,0.00,WeatherDisplay:10.37,2013-06-28 11:55:00,
2013-06-28 07:00:00,64.5,59.5,29.74,NNW,342,1.0,6.0,84,0.00,CLR,,0.00,WeatherDisplay:10.37,2013-06-28 12:00:00,
2013-06-28 07:05:00,65.1,59.8,29.74,NNW,343,2.0,6.0,83,0.00,CLR,,0.00,WeatherDisplay:10.37,2013-06-28 12:05:00,
2013-06-28 07:10:00,65.7,59.7,29.74,NNW,344,1.0,6.0,81,0.00,CLR,,0.00,WeatherDisplay:10.37,2013-06-28 12:10:00,
2013-06-28 07:15:00,66.3,59.9,29.74,NNW,344,1.0,6.0,80,0.00,CLR,,0.00,WeatherDisplay:10.37,2013-06-28 12:15:00,
2013-06-28 07:20:00,66.8,60.1,29.73,NNW,344,1.0,4.0,79,0.00,CLR,,0.00,WeatherDisplay:10.37,2013-06-28 12:20:00,
2013-06-28 07:25:00,67.4,60.3,29.73,NNW,344,1.0,7.0,78,0.00,CLR,,0.00,WeatherDisplay:10.37,2013-06-28 12:25:00,
2013-06-28 07:30:00,68.0,60.1,29.73,NNW,342,3.0,7.0,76,0.00,CLR,,0.00,WeatherDisplay:10.37,2013-06-28 12:30:00,
2013-06-28 07:40:00,68.7,60.5,29.73,NNW,341,1.0,5.0,75,0.00,CLR,,0.00,WeatherDisplay:10.37,2013-06-28 12:40:00,
2013-06-28 07:45:00,69.0,60.7,29.73,NNW,342,0.0,6.0,75,0.00,CLR,,0.00,WeatherDisplay:10.37,2013-06-28 12:45:00,
2013-06-28 07:50:00,69.3,60.7,29.73,NNW,341,3.0,6.0,74,0.00,CLR,,0.00,WeatherDisplay:10.37,2013-06-28 12:50:00,
2013-06-28 07:55:00,69.8,61.1,29.73,NNW,340,2.0,5.0,74,0.00,CLR,,0.00,WeatherDisplay:10.37,2013-06-28 12:55:00,
2013-06-28 08:00:00,70.3,60.9,29.72,NNW,340,3.0,9.0,72,0.00,CLR,,0.00,WeatherDisplay:10.37,2013-06-28 13:00:00,
2013-06-28 08:05:00,70.8,60.9,29.73,NNW,327,1.0,9.0,71,0.00,CLR,,0.00,WeatherDisplay:10.37,2013-06-28 13:05:00,
2013-06-28 08:10:00,71.2,60.9,29.73,NNW,332,3.0,7.0,70,0.00,CLR,,0.00,WeatherDisplay:10.37,2013-06-28 13:10:00,
2013-06-28 08:15:00,71.6,60.9,29.73,NNW,345,0.0,8.0,69,0.00,CLR,,0.00,WeatherDisplay:10.37,2013-06-28 13:15:00,
2013-06-28 08:20:00,71.9,60.8,29.73,NNW,348,5.0,12.0,68,0.00,CLR,,0.00,WeatherDisplay:10.37,2013-06-28 13:20:00,
2013-06-28 08:25:00,72.2,61.1,29.72,NNW,343,5.0,9.0,68,0.00,CLR,,0.00,WeatherDisplay:10.37,2013-06-28 13:25:00,
2013-06-28 08:30:00,72.6,61.0,29.72,NNW,343,7.0,9.0,67,0.00,CLR,,0.00,WeatherDisplay:10.37,2013-06-28 13:30:00,
2013-06-28 08:35:00,72.9,60.8,29.72,NNW,345,6.0,8.0,66,0.00,CLR,,0.00,WeatherDisplay:10.37,2013-06-28 13:35:00,
2013-06-28 08:40:00,73.2,61.2,29.72,NNW,336,2.0,8.0,66,0.00,CLR,,0.00,WeatherDisplay:10.37,2013-06-28 13:40:00,
2013-06-28 08:50:00,73.9,61.4,29.72,NW,314,6.0,10.0,65,0.00,CLR,,0.00,WeatherDisplay:10.37,2013-06-28 13:50:00,
2013-06-28 08:55:00,74.2,61.2,29.71,NW,315,6.0,9.0,64,0.00,CLR,,0.00,WeatherDisplay:10.37,2013-06-28 13:55:00,
2013-06-28 09:00:00,74.4,61.0,29.71,NNW,328,5.0,9.0,63,0.00,CLR,,0.00,WeatherDisplay:10.37,2013-06-28 14:00:00,
2013-06-28 09:05:00,74.6,61.1,29.71,NNW,330,5.0,14.0,63,0.00,CLR,,0.00,WeatherDisplay:10.37,2013-06-28 14:05:00,
2013-06-28 09:10:00,74.7,60.8,29.71,NNW,331,6.0,10.0,62,0.00,CLR,,0.00,WeatherDisplay:10.37,2013-06-28 14:10:00,
2013-06-28 09:20:00,74.9,61.5,29.70,NNW,342,6.0,12.0,63,0.00,CLR,,0.00,WeatherDisplay:10.37,2013-06-28 14:20:00,
2013-06-28 09:25:00,75.2,60.8,29.70,NNW,337,7.0,14.0,61,0.00,CLR,,0.00,WeatherDisplay:10.37,2013-06-28 14:25:00,
2013-06-28 09:30:00,75.3,60.5,29.70,NW,324,9.0,16.0,60,0.00,CLR,,0.00,WeatherDisplay:10.37,2013-06-28 14:30:00,
2013-06-28 09:35:00,75.5,60.6,29.70,NW,304,7.0,15.0,60,0.00,CLR,,0.00,WeatherDisplay:10.37,2013-06-28 14:35:00,
2013-06-28 09:40:00,75.7,60.3,29.70,NW,313,8.0,15.0,59,0.00,CLR,,0.00,WeatherDisplay:10.37,2013-06-28 14:40:00,
2013-06-28 09:50:00,75.8,60.4,29.70,NNW,338,7.0,15.0,59,0.00,CLR,,0.00,WeatherDisplay:10.37,2013-06-28 14:50:00,
2013-06-28 09:55:00,75.8,60.9,29.70,NNW,346,5.0,14.0,60,0.00,CLR,,0.00,WeatherDisplay:10.37,2013-06-28 14:55:00,
2013-06-28 10:00:00,76.1,60.7,29.69,NW,322,7.0,14.0,59,0.00,CLR,,0.00,WeatherDisplay:10.37,2013-06-28 15:00:00,
2013-06-28 10:05:00,76.2,60.8,29.69,WNW,301,8.0,14.0,59,0.00,CLR,,0.00,WeatherDisplay:10.37,2013-06-28 15:05:00,
2013-06-28 10:10:00,76.2,60.8,29.69,NW,323,7.0,22.0,59,0.00,CLR,,0.00,WeatherDisplay:10.37,2013-06-28 15:10:00,
2013-06-28 10:15:00,76.3,60.9,29.69,NNW,343,7.0,15.0,59,0.00,CLR,,0.00,WeatherDisplay:10.37,2013-06-28 15:15:00,
2013-06-28 10:20:00,76.6,60.7,29.69,NW,323,8.0,13.0,58,0.00,CLR,,0.00,WeatherDisplay:10.37,2013-06-28 15:20:00,
2013-06-28 10:25:00,76.9,61.0,29.69,WNW,303,6.0,13.0,58,0.00,CLR,,0.00,WeatherDisplay:10.37,2013-06-28 15:25:00,
2013-06-28 10:30:00,77.0,61.1,29.69,NW,319,7.0,15.0,58,0.00,CLR,,0.00,WeatherDisplay:10.37,2013-06-28 15:30:00,
2013-06-28 10:35:00,77.1,60.2,29.69,NNW,339,8.0,14.0,56,0.00,CLR,,0.00,WeatherDisplay:10.37,2013-06-28 15:35:00,
2013-06-28 10:40:00,76.9,60.5,29.69,NNW,338,7.0,18.0,57,0.00,CLR,,0.00,WeatherDisplay:10.37,2013-06-28 15:40:00,
2013-06-28 10:45:00,76.7,60.8,29.69,NNW,337,7.0,18.0,58,0.00,CLR,,0.00,WeatherDisplay:10.37,2013-06-28 15:45:00,
2013-06-28 10:50:00,76.5,61.1,29.69,NW,323,6.0,12.0,59,0.00,CLR,,0.00,WeatherDisplay:10.37,2013-06-28 15:50:00,
2013-06-28 10:55:00,76.3,60.9,29.69,NW,318,6.0,10.0,59,0.00,CLR,,0.00,WeatherDisplay:10.37,2013-06-28 15:55:00,
2013-06-28 11:00:00,76.7,61.7,29.69,NW,322,5.0,12.0,60,0.00,CLR,,0.00,WeatherDisplay:10.37,2013-06-28 16:00:00,
2013-06-28 11:05:00,77.2,61.7,29.69,NW,315,6.0,12.0,59,0.00,CLR,,0.00,WeatherDisplay:10.37,2013-06-28 16:05:00,
2013-06-28 11:10:00,76.7,60.8,29.69,NW,314,6.0,15.0,58,0.00,CLR,,0.00,WeatherDisplay:10.37,2013-06-28 16:10:00,
2013-06-28 11:20:00,76.4,61.0,29.69,NW,324,6.0,12.0,59,0.00,CLR,,0.00,WeatherDisplay:10.37,2013-06-28 16:20:00,
2013-06-28 11:25:00,76.3,61.4,29.69,NW,324,6.0,10.0,60,0.00,CLR,,0.00,WeatherDisplay:10.37,2013-06-28 16:25:00,
2013-06-28 11:30:00,76.2,61.3,29.69,NW,312,5.0,12.0,60,0.00,CLR,,0.00,WeatherDisplay:10.37,2013-06-28 16:30:00,
2013-06-28 11:40:00,75.6,60.7,29.70,NNW,330,5.0,9.0,60,0.00,CLR,,0.00,WeatherDisplay:10.37,2013-06-28 16:40:00,
2013-06-28 11:45:00,75.4,61.0,29.69,NNW,331,5.0,10.0,61,0.00,CLR,,0.00,WeatherDisplay:10.37,2013-06-28 16:45:00,
2013-06-28 11:50:00,75.2,61.3,29.69,NNW,341,1.0,6.0,62,0.00,CLR,,0.00,WeatherDisplay:10.37,2013-06-28 16:50:00,
2013-06-28 12:00:00,75.3,60.5,29.70,NNW,340,6.0,12.0,60,0.00,CLR,,0.00,WeatherDisplay:10.37,2013-06-28 17:00:00,
2013-06-28 12:05:00,75.2,60.4,29.70,NNW,340,6.0,12.0,60,0.00,CLR,,0.00,WeatherDisplay:10.37,2013-06-28 17:05:00,
2013-06-28 12:10:00,75.4,61.0,29.70,NNW,345,7.0,13.0,61,0.00,CLR,,0.00,WeatherDisplay:10.37,2013-06-28 17:10:00,
2013-06-28 12:15:00,75.4,61.0,29.70,NNW,344,5.0,12.0,61,0.00,CLR,,0.00,WeatherDisplay:10.37,2013-06-28 17:15:00,
2013-06-28 12:20:00,75.2,61.3,29.70,NNW,348,5.0,12.0,62,0.00,CLR,,0.00,WeatherDisplay:10.37,2013-06-28 17:20:00,
2013-06-28 12:30:00,75.4,61.5,29.70,NNW,338,3.0,13.0,62,0.00,CLR,,0.00,WeatherDisplay:10.37,2013-06-28 17:30:00,
2013-06-28 12:35:00,75.5,61.5,29.70,North,350,2.0,12.0,62,0.00,CLR,,0.00,WeatherDisplay:10.37,2013-06-28 17:35:00,
2013-06-28 12:40:00,75.3,61.4,29.70,North,353,2.0,18.0,62,0.00,CLR,,0.00,WeatherDisplay:10.37,2013-06-28 17:40:00,
2013-06-28 12:45:00,75.0,61.5,29.70,NNW,346,5.0,12.0,63,0.00,CLR,,0.00,WeatherDisplay:10.37,2013-06-28 17:45:00,
2013-06-28 12:50:00,74.7,61.8,29.70,NNW,345,6.0,12.0,64,0.00,CLR,,0.00,WeatherDisplay:10.37,2013-06-28 17:50:00,
2013-06-28 12:55:00,74.4,62.3,29.70,North,352,3.0,12.0,66,0.00,CLR,,0.00,WeatherDisplay:10.37,2013-06-28 17:55:00,
2013-06-28 13:00:00,73.9,62.2,29.70,NNW,347,6.0,12.0,67,0.00,CLR,,0.00,WeatherDisplay:10.37,2013-06-28 18:00:00,
2013-06-28 13:05:00,73.7,62.1,29.70,North,349,3.0,9.0,67,0.00,CLR,,0.00,WeatherDisplay:10.37,2013-06-28 18:05:00,
2013-06-28 13:10:00,73.9,62.2,29.70,North,351,6.0,10.0,67,0.00,CLR,,0.00,WeatherDisplay:10.37,2013-06-28 18:10:00,
2013-06-28 13:15:00,73.8,62.2,29.70,NNW,343,8.0,14.0,67,0.00,CLR,,0.00,WeatherDisplay:10.37,2013-06-28 18:15:00,
2013-06-28 13:20:00,73.9,62.7,29.70,NNW,343,7.0,12.0,68,0.00,CLR,,0.00,WeatherDisplay:10.37,2013-06-28 18:20:00,
2013-06-28 13:30:00,73.9,62.7,29.70,NNW,347,3.0,8.0,68,0.00,CLR,,0.00,WeatherDisplay:10.37,2013-06-28 18:30:00,
2013-06-28 13:40:00,73.5,63.1,29.70,NW,318,10.0,18.0,70,0.00,CLR,,0.00,WeatherDisplay:10.37,2013-06-28 18:40:00,
2013-06-28 13:45:00,72.0,63.3,29.70,WNW,295,7.0,18.0,74,0.00,CLR,,0.00,WeatherDisplay:10.37,2013-06-28 18:45:00,
2013-06-28 13:50:00,71.0,63.4,29.70,NNW,327,2.0,12.0,77,0.00,CLR,,0.00,WeatherDisplay:10.37,2013-06-28 18:50:00,
2013-06-28 13:55:00,70.4,63.6,29.70,NNW,344,3.0,10.0,79,0.00,CLR,,0.00,WeatherDisplay:10.37,2013-06-28 18:55:00,
2013-06-28 14:00:00,70.5,64.0,29.70,NNW,339,3.0,13.0,80,0.00,CLR,,0.00,WeatherDisplay:10.37,2013-06-28 19:00:00,
2013-06-28 14:05:00,70.8,64.0,29.70,NNW,346,6.0,13.0,79,0.00,CLR,,0.00,WeatherDisplay:10.37,2013-06-28 19:05:00,
2013-06-28 14:10:00,71.0,63.8,29.70,NNW,342,6.0,15.0,78,0.00,CLR,,0.00,WeatherDisplay:10.37,2013-06-28 19:10:00,
2013-06-28 14:20:00,71.3,62.9,29.70,NNW,343,9.0,14.0,75,0.00,CLR,,0.00,WeatherDisplay:10.37,2013-06-28 19:20:00,
2013-06-28 14:25:00,71.9,63.1,29.69,NNW,340,8.0,12.0,74,0.00,CLR,,0.00,WeatherDisplay:10.37,2013-06-28 19:25:00,
2013-06-28 14:30:00,72.8,63.6,29.69,NNW,337,8.0,14.0,73,0.00,CLR,,0.00,WeatherDisplay:10.37,2013-06-28 19:30:00,
2013-06-28 14:35:00,73.0,63.0,29.69,NNW,341,7.0,15.0,71,0.00,CLR,,0.00,WeatherDisplay:10.37,2013-06-28 19:35:00,
2013-06-28 14:40:00,73.1,63.6,29.69,NNW,345,6.0,20.0,72,0.00,CLR,,0.00,WeatherDisplay:10.37,2013-06-28 19:40:00,
2013-06-28 14:45:00,73.9,63.9,29.69,NNW,347,6.0,12.0,71,0.00,CLR,,0.00,WeatherDisplay:10.37,2013-06-28 19:45:00,
2013-06-28 14:50:00,74.3,63.9,29.68,NNW,346,6.0,12.0,70,0.00,CLR,,0.00,WeatherDisplay:10.37,2013-06-28 19:50:00,
2013-06-28 15:00:00,75.2,63.9,29.68,NNW,340,7.0,10.0,68,0.00,CLR,,0.00,WeatherDisplay:10.37,2013-06-28 20:00:00,
2013-06-28 15:05:00,75.3,64.0,29.68,NNW,335,5.0,14.0,68,0.00,CLR,,0.00,WeatherDisplay:10.37,2013-06-28 20:05:00,
2013-06-28 15:10:00,75.0,63.7,29.68,NNW,343,7.0,18.0,68,0.00,CLR,,0.00,WeatherDisplay:10.37,2013-06-28 20:10:00,
2013-06-28 15:15:00,74.4,63.6,29.68,NNW,342,6.0,18.0,69,0.00,CLR,,0.00,WeatherDisplay:10.37,2013-06-28 20:15:00,
2013-06-28 15:20:00,74.2,63.4,29.68,NNW,344,9.0,14.0,69,0.00,CLR,,0.00,WeatherDisplay:10.37,2013-06-28 20:20:00,
2013-06-28 15:25:00,74.2,63.4,29.68,NNW,341,7.0,14.0,69,0.00,CLR,,0.00,WeatherDisplay:10.37,2013-06-28 20:25:00,
2013-06-28 15:30:00,74.7,63.9,29.68,NNW,328,5.0,15.0,69,0.00,CLR,,0.00,WeatherDisplay:10.37,2013-06-28 20:30:00,
2013-06-28 15:35:00,75.3,63.6,29.68,NNW,336,5.0,15.0,67,0.00,CLR,,0.00,WeatherDisplay:10.37,2013-06-28 20:35:00,
2013-06-28 15:40:00,75.7,63.9,29.68,NNW,327,7.0,13.0,67,0.00,CLR,,0.00,WeatherDisplay:10.37,2013-06-28 20:40:00,
2013-06-28 15:45:00,75.9,64.2,29.67,NNW,327,6.0,13.0,67,0.00,CLR,,0.00,WeatherDisplay:10.37,2013-06-28 20:45:00,
2013-06-28 15:50:00,76.2,64.4,29.67,NNW,334,6.0,12.0,67,0.00,CLR,,0.00,WeatherDisplay:10.37,2013-06-28 20:50:00,
2013-06-28 15:55:00,76.3,63.3,29.68,NNW,343,10.0,22.0,64,0.00,CLR,,0.00,WeatherDisplay:10.37,2013-06-28 20:55:00,
2013-06-28 16:00:00,76.2,64.0,29.68,North,350,7.0,16.0,66,0.00,CLR,,0.00,WeatherDisplay:10.37,2013-06-28 21:00:00,
2013-06-28 16:05:00,76.4,64.2,29.68,NNW,342,6.0,12.0,66,0.00,CLR,,0.00,WeatherDisplay:10.37,2013-06-28 21:05:00,
2013-06-28 16:10:00,76.7,64.5,29.68,NNW,343,6.0,9.0,66,0.00,CLR,,0.00,WeatherDisplay:10.37,2013-06-28 21:10:00,
2013-06-28 16:15:00,77.0,64.8,29.67,North,352,3.0,8.0,66,0.00,CLR,,0.00,WeatherDisplay:10.37,2013-06-28 21:15:00,
2013-06-28 16:20:00,77.2,64.5,29.67,WNW,294,6.0,16.0,65,0.00,CLR,,0.00,WeatherDisplay:10.37,2013-06-28 21:20:00,
2013-06-28 16:25:00,77.1,64.5,29.67,NW,310,3.0,16.0,65,0.00,CLR,,0.00,WeatherDisplay:10.37,2013-06-28 21:25:00,
2013-06-28 16:30:00,77.1,64.0,29.67,NNW,335,5.0,15.0,64,0.00,CLR,,0.00,WeatherDisplay:10.37,2013-06-28 21:30:00,
2013-06-28 16:35:00,76.6,64.0,29.67,NNW,331,3.0,14.0,65,0.00,CLR,,0.00,WeatherDisplay:10.37,2013-06-28 21:35:00,
2013-06-28 16:40:00,76.7,64.0,29.67,NW,322,7.0,12.0,65,0.00,CLR,,0.00,WeatherDisplay:10.37,2013-06-28 21:40:00,
2013-06-28 16:45:00,76.5,64.3,29.68,WNW,291,5.0,18.0,66,0.00,CLR,,0.00,WeatherDisplay:10.37,2013-06-28 21:45:00,
2013-06-28 16:50:00,76.4,64.2,29.68,WNW,301,5.0,9.0,66,0.00,CLR,,0.00,WeatherDisplay:10.37,2013-06-28 21:50:00,
2013-06-28 16:55:00,76.3,64.5,29.67,NNW,333,7.0,20.0,67,0.00,CLR,,0.00,WeatherDisplay:10.37,2013-06-28 21:55:00,
2013-06-28 17:00:00,75.8,64.5,29.67,NW,311,5.0,15.0,68,0.00,CLR,,0.00,WeatherDisplay:10.37,2013-06-28 22:00:00,
2013-06-28 17:05:00,76.1,64.8,29.67,West,279,6.0,12.0,68,0.00,CLR,,0.00,WeatherDisplay:10.37,2013-06-28 22:05:00,
2013-06-28 17:10:00,76.0,64.7,29.68,WNW,283,5.0,10.0,68,0.00,CLR,,0.00,WeatherDisplay:10.37,2013-06-28 22:10:00,
2013-06-28 17:15:00,75.4,64.1,29.68,NW,308,5.0,12.0,68,0.00,CLR,,0.00,WeatherDisplay:10.37,2013-06-28 22:15:00,
2013-06-28 17:20:00,74.9,64.1,29.68,NNW,334,7.0,16.0,69,0.00,CLR,,0.00,WeatherDisplay:10.37,2013-06-28 22:20:00,
2013-06-28 17:30:00,73.1,64.3,29.69,NNW,335,10.0,20.0,74,0.01,RA,,0.01,WeatherDisplay:10.37,2013-06-28 22:30:00,
2013-06-28 17:35:00,71.2,64.7,29.69,NNW,343,7.0,18.0,80,0.02,RA,,0.03,WeatherDisplay:10.37,2013-06-28 22:35:00,
2013-06-28 17:40:00,69.8,64.7,29.68,NNW,347,5.0,12.0,84,0.01,RA,,0.04,WeatherDisplay:10.37,2013-06-28 22:40:00,
2013-06-28 17:45:00,69.3,65.2,29.68,NNW,341,3.0,7.0,87,0.00,RA,,0.04,WeatherDisplay:10.37,2013-06-28 22:45:00,
2013-06-28 17:50:00,69.0,65.3,29.68,NNW,345,1.0,9.0,88,0.00,RA,,0.04,WeatherDisplay:10.37,2013-06-28 22:50:00,
2013-06-28 17:55:00,69.0,65.3,29.67,North,352,2.0,7.0,88,0.00,RA,,0.04,WeatherDisplay:10.37,2013-06-28 22:55:00,
2013-06-28 18:00:00,69.1,65.8,29.68,North,354,1.0,6.0,89,0.00,RA,,0.04,WeatherDisplay:10.37,2013-06-28 23:00:00,
2013-06-28 18:05:00,69.5,66.1,29.68,North,351,5.0,7.0,89,0.00,RA,,0.04,WeatherDisplay:10.37,2013-06-28 23:05:00,
2013-06-28 18:10:00,70.0,66.9,29.68,North,349,0.0,8.0,90,0.00,RA,,0.04,WeatherDisplay:10.37,2013-06-28 23:10:00,
2013-06-28 18:20:00,71.0,67.0,29.68,North,356,2.0,6.0,87,0.00,RA,,0.04,WeatherDisplay:10.37,2013-06-28 23:20:00,
2013-06-28 18:25:00,71.3,67.2,29.68,North,355,1.0,5.0,87,0.00,RA,,0.04,WeatherDisplay:10.37,2013-06-28 23:25:00,
2013-06-28 18:30:00,71.3,67.3,29.67,NNW,347,5.0,10.0,87,0.00,RA,,0.04,WeatherDisplay:10.37,2013-06-28 23:30:00,
2013-06-28 18:35:00,71.2,66.8,29.67,WNW,295,2.0,10.0,86,0.00,RA,,0.04,WeatherDisplay:10.37,2013-06-28 23:35:00,
2013-06-28 18:40:00,71.1,66.0,29.67,West,280,7.0,12.0,84,0.00,RA,,0.04,WeatherDisplay:10.37,2013-06-28 23:40:00,
2013-06-28 18:45:00,70.8,65.7,29.67,WNW,300,6.0,18.0,84,0.00,RA,,0.04,WeatherDisplay:10.37,2013-06-28 23:45:00,
2013-06-28 18:50:00,70.5,65.7,29.67,NW,321,8.0,15.0,85,0.00,RA,,0.04,WeatherDisplay:10.37,2013-06-28 23:50:00,
2013-06-28 18:55:00,69.9,65.2,29.67,NNW,328,8.0,13.0,85,0.00,RA,,0.04,WeatherDisplay:10.37,2013-06-28 23:55:00,
2013-06-28 19:00:00,69.4,64.7,29.68,NW,314,5.0,14.0,85,0.00,RA,,0.04,WeatherDisplay:10.37,2013-06-29 00:00:00,
2013-06-28 19:05:00,69.2,64.8,29.68,NNW,331,5.0,10.0,86,0.00,RA,,0.04,WeatherDisplay:10.37,2013-06-29 00:05:00,
2013-06-28 19:10:00,69.0,64.6,29.68,NNW,347,6.0,12.0,86,0.00,RA,,0.05,WeatherDisplay:10.37,2013-06-29 00:10:00,
2013-06-28 19:15:00,68.8,64.4,29.68,NNW,340,3.0,12.0,86,0.01,RA,,0.05,WeatherDisplay:10.37,2013-06-29 00:15:00,
2013-06-28 19:20:00,68.5,64.1,29.69,NNW,343,2.0,12.0,86,0.00,RA,,0.05,WeatherDisplay:10.37,2013-06-29 00:20:00,
2013-06-28 19:25:00,68.4,64.0,29.69,NNW,339,5.0,12.0,86,0.00,RA,,0.05,WeatherDisplay:10.37,2013-06-29 00:25:00,
2013-06-28 19:30:00,68.2,64.2,29.69,NNW,334,5.0,9.0,87,0.00,RA,,0.05,WeatherDisplay:10.37,2013-06-29 00:30:00,
2013-06-28 19:40:00,68.0,64.0,29.69,NNW,348,1.0,7.0,87,0.00,RA,,0.05,WeatherDisplay:10.37,2013-06-29 00:40:00,
2013-06-28 19:45:00,67.9,63.9,29.69,North,349,0.0,7.0,87,0.00,RA,,0.05,WeatherDisplay:10.37,2013-06-29 00:45:00,
2013-06-28 19:50:00,67.8,63.8,29.69,North,349,2.0,7.0,87,0.00,RA,,0.05,WeatherDisplay:10.37,2013-06-29 00:50:00,
2013-06-28 20:00:00,67.7,64.0,29.69,North,349,0.0,1.0,88,0.00,RA,,0.05,WeatherDisplay:10.37,2013-06-29 01:00:00,
2013-06-28 20:05:00,67.7,64.0,29.69,North,349,2.0,5.0,88,0.00,RA,,0.05,WeatherDisplay:10.37,2013-06-29 01:05:00,
2013-06-28 20:10:00,67.6,63.9,29.69,North,349,1.0,6.0,88,0.00,RA,,0.05,WeatherDisplay:10.37,2013-06-29 01:10:00,
2013-06-28 20:15:00,67.6,64.2,29.69,North,349,1.0,4.0,89,0.00,RA,,0.05,WeatherDisplay:10.37,2013-06-29 01:15:00,
2013-06-28 20:20:00,67.5,64.1,29.69,North,349,1.0,5.0,89,0.00,RA,,0.05,WeatherDisplay:10.37,2013-06-29 01:20:00,
2013-06-28 20:25:00,67.4,64.0,29.69,North,349,1.0,5.0,89,0.00,RA,,0.05,WeatherDisplay:10.37,2013-06-29 01:25:00,
2013-06-28 20:30:00,67.3,63.9,29.69,North,349,2.0,6.0,89,0.00,RA,,0.05,WeatherDisplay:10.37,2013-06-29 01:30:00,
2013-06-28 20:35:00,67.2,63.8,29.69,North,349,0.0,4.0,89,0.00,RA,,0.05,WeatherDisplay:10.37,2013-06-29 01:35:00,
2013-06-28 20:40:00,67.0,63.7,29.69,NNW,348,1.0,3.0,89,0.00,RA,,0.05,WeatherDisplay:10.37,2013-06-29 01:40:00,
2013-06-28 20:45:00,66.9,63.5,29.69,NNW,348,0.0,7.0,89,0.00,RA,,0.05,WeatherDisplay:10.37,2013-06-29 01:45:00,
2013-06-28 20:50:00,66.7,63.4,29.69,NNW,348,1.0,6.0,89,0.00,RA,,0.05,WeatherDisplay:10.37,2013-06-29 01:50:00,
2013-06-28 20:55:00,66.6,63.3,29.69,NNW,346,1.0,6.0,89,0.00,RA,,0.05,WeatherDisplay:10.37,2013-06-29 01:55:00,
2013-06-28 21:00:00,66.5,63.1,29.69,NNW,344,0.0,7.0,89,0.00,RA,,0.05,WeatherDisplay:10.37,2013-06-29 02:00:00,
2013-06-28 21:05:00,66.4,63.0,29.69,NNW,345,0.0,5.0,89,0.00,RA,,0.05,WeatherDisplay:10.37,2013-06-29 02:05:00,
2013-06-28 21:10:00,66.3,63.0,29.69,NNW,345,0.0,4.0,89,0.00,RA,,0.05,WeatherDisplay:10.37,2013-06-29 02:10:00,
2013-06-28 21:15:00,66.2,62.9,29.69,NNW,345,0.0,2.0,89,0.00,RA,,0.05,WeatherDisplay:10.37,2013-06-29 02:15:00,
2013-06-28 21:20:00,66.1,62.8,29.70,NNW,345,0.0,1.0,89,0.00,RA,,0.05,WeatherDisplay:10.37,2013-06-29 02:20:00,
2013-06-28 21:25:00,65.9,62.6,29.69,NNW,345,0.0,1.0,89,0.00,RA,,0.05,WeatherDisplay:10.37,2013-06-29 02:25:00,
2013-06-28 21:30:00,65.8,62.8,29.69,NNW,345,1.0,4.0,90,0.00,RA,,0.05,WeatherDisplay:10.37,2013-06-29 02:30:00,
2013-06-28 21:35:00,65.8,62.8,29.69,NNW,345,2.0,6.0,90,0.00,RA,,0.05,WeatherDisplay:10.37,2013-06-29 02:35:00,
2013-06-28 21:40:00,65.8,62.8,29.69,NNW,345,1.0,4.0,90,0.00,RA,,0.05,WeatherDisplay:10.37,2013-06-29 02:40:00,
2013-06-28 21:45:00,65.8,62.8,29.69,NNW,345,1.0,7.0,90,0.00,RA,,0.05,WeatherDisplay:10.37,2013-06-29 02:45:00,
2013-06-28 21:50:00,65.8,62.8,29.70,NNW,345,0.0,4.0,90,0.00,RA,,0.05,WeatherDisplay:10.37,2013-06-29 02:50:00,
2013-06-28 21:55:00,65.8,62.8,29.69,NNW,346,0.0,1.0,90,0.00,RA,,0.05,WeatherDisplay:10.37,2013-06-29 02:55:00,
2013-06-28 22:00:00,65.8,62.8,29.69,NNW,346,0.0,2.0,90,0.00,RA,,0.05,WeatherDisplay:10.37,2013-06-29 03:00:00,
2013-06-28 22:05:00,65.8,62.8,29.69,NNW,346,1.0,6.0,90,0.00,RA,,0.05,WeatherDisplay:10.37,2013-06-29 03:05:00,
2013-06-28 22:10:00,65.8,62.8,29.69,NNW,345,0.0,2.0,90,0.00,RA,,0.05,WeatherDisplay:10.37,2013-06-29 03:10:00,
2013-06-28 22:20:00,65.8,62.8,29.69,NNW,346,0.0,3.0,90,0.00,RA,,0.05,WeatherDisplay:10.37,2013-06-29 03:20:00,
2013-06-28 22:25:00,65.8,62.8,29.69,NNW,346,0.0,4.0,90,0.00,RA,,0.05,WeatherDisplay:10.37,2013-06-29 03:25:00,
2013-06-28 22:30:00,65.8,62.8,29.69,NNW,346,0.0,2.0,90,0.00,RA,,0.05,WeatherDisplay:10.37,2013-06-29 03:30:00,
2013-06-28 22:35:00,65.7,62.7,29.69,NNW,346,0.0,4.0,90,0.00,RA,,0.05,WeatherDisplay:10.37,2013-06-29 03:35:00,
2013-06-28 22:40:00,65.7,63.0,29.69,NNW,345,0.0,3.0,91,0.00,RA,,0.05,WeatherDisplay:10.37,2013-06-29 03:40:00,
2013-06-28 22:50:00,65.5,62.8,29.69,NNW,346,0.0,0.0,91,0.00,RA,,0.05,WeatherDisplay:10.37,2013-06-29 03:50:00,
2013-06-28 22:55:00,65.4,62.7,29.69,NNW,345,0.0,0.0,91,0.00,RA,,0.05,WeatherDisplay:10.37,2013-06-29 03:55:00,
2013-06-28 23:00:00,65.4,62.7,29.69,NNW,345,0.0,1.0,91,0.00,RA,,0.05,WeatherDisplay:10.37,2013-06-29 04:00:00,
2013-06-28 23:05:00,65.4,62.7,29.69,NNW,346,0.0,1.0,91,0.01,RA,,0.06,WeatherDisplay:10.37,2013-06-29 04:05:00,
2013-06-28 23:10:00,65.4,63.0,29.69,NNW,346,0.0,1.0,92,0.00,RA,,0.06,WeatherDisplay:10.37,2013-06-29 04:10:00,
2013-06-28 23:15:00,65.3,62.9,29.69,NNW,345,0.0,1.0,92,0.00,RA,,0.06,WeatherDisplay:10.37,2013-06-29 04:15:00,
2013-06-28 23:20:00,65.3,62.9,29.69,NNW,346,0.0,1.0,92,0.00,RA,,0.06,WeatherDisplay:10.37,2013-06-29 04:20:00,
2013-06-28 23:30:00,65.2,63.1,29.69,NNW,346,0.0,0.0,93,0.00,RA,,0.06,WeatherDisplay:10.37,2013-06-29 04:30:00,
2013-06-28 23:35:00,65.1,63.1,29.69,NNW,346,0.0,0.0,93,0.00,RA,,0.06,WeatherDisplay:10.37,2013-06-29 04:35:00,
2013-06-28 23:40:00,65.2,63.1,29.69,NNW,346,0.0,4.0,93,0.00,RA,,0.06,WeatherDisplay:10.37,2013-06-29 04:40:00,
2013-06-28 23:45:00,65.2,63.1,29.69,NNW,345,0.0,2.0,93,0.00,RA,,0.06,WeatherDisplay:10.37,2013-06-29 04:45:00,
2013-06-28 23:50:00,65.2,63.2,29.69,NNW,346,1.0,5.0,93,0.00,RA,,0.06,WeatherDisplay:10.37,2013-06-29 04:50:00,
2013-06-28 23:55:00,65.3,63.5,29.69,NNW,346,0.0,2.0,94,0.01,RA,,0.07,WeatherDisplay:10.37,2013-06-29 04:55:00,